Wind_Speed
29 29 29 29 30 31 31 32 32 32 33 34 34 34 34 35 37 38 38 38 39 39 39 39 39 40 40 41 42 43 43 43 43 43 43 42 42 42 42 42 42 42 42 41
30 31 29 29 30 31 32 33 33 34 34 34 34 34 35 35 36 37 38 38 39 39 39 40 41 41 42 42 43 44 45 45 45 45 44 43 43 42 42 43 43 44 43 42
30 31 31 31 31 31 33 33 33 34 34 35 35 35 35 34 34 36 37 37 38 39 39 40 41 42 42 43 44 45 45 46 45 45 45 44 44 44 43 43 43 44 44 43
31 30 31 32 32 32 33 32 32 33 34 35 36 36 34 34 34 35 36 36 37 39 40 40 41 42 42 42 43 44 44 45 45 45 45 45 45 45 45 45 44 44 44 44
29 30 30 31 32 32 33 32 32 32 33 34 35 37 34 34 34 34 35 36 37 39 40 40 41 41 41 42 43 43 43 44 45 45 46 46 46 45 45 45 45 44 45 45
29 30 30 30 31 32 33 32 32 33 34 35 34 36 35 35 35 35 35 36 37 38 39 40 40 41 41 41 42 42 43 43 44 45 45 45 45 45 45 45 44 44 45 46
29 30 30 30 30 31 32 32 33 34 35 35 34 35 36 35 35 35 35 35 36 37 38 38 38 39 40 41 41 42 43 43 43 44 44 44 44 45 45 46 46 46 46 47
29 29 30 30 30 30 32 33 33 33 33 34 34 35 35 35 35 35 34 35 35 35 36 37 38 38 40 40 41 42 42 43 43 44 44 44 44 45 46 46 46 46 46 46
28 28 29 29 29 29 30 32 33 33 33 33 34 35 35 34 34 34 34 34 34 35 35 36 37 39 40 40 41 41 41 42 43 44 44 45 45 45 46 46 46 46 46 46
27 27 27 28 29 29 30 30 31 32 32 33 34 34 34 33 33 34 35 34 35 35 35 36 37 38 39 40 40 40 41 41 42 42 43 44 44 44 45 45 45 45 45 46
27 28 27 27 28 28 29 30 31 32 32 32 32 33 33 33 33 33 34 35 35 36 36 36 37 38 38 39 39 40 40 41 42 42 42 42 43 43 44 45 45 45 45 46
28 28 28 28 28 28 29 30 31 31 32 32 32 32 32 32 32 32 33 34 35 36 36 36 36 36 37 37 38 38 39 40 41 42 42 43 43 43 44 45 45 44 45 46
27 28 28 28 28 28 28 29 30 31 32 32 32 31 31 32 32 32 32 33 34 34 35 36 35 36 36 36 37 38 39 40 41 42 43 43 43 44 45 45 45 45 45 45
27 28 28 28 28 28 28 28 29 30 32 33 32 32 31 32 32 32 32 33 33 34 34 34 35 35 35 36 37 38 39 40 41 42 42 43 44 44 44 45 45 45 45 44
26 27 28 28 29 28 28 28 29 30 31 33 32 32 31 32 33 33 33 33 33 33 33 33 34 34 34 35 36 38 39 40 40 41 42 42 43 43 43 44 45 46 46 45
26 27 27 27 28 30 30 29 30 30 31 32 33 32 31 32 34 34 34 34 34 33 33 33 33 34 35 35 36 36 37 38 38 39 40 41 42 43 43 43 44 45 46 46
25 26 27 27 27 29 30 29 30 31 31 31 32 31 32 32 33 34 34 35 35 34 34 34 34 34 34 34 35 35 35 36 37 38 39 40 41 42 42 42 42 43 44 44
25 26 27 28 29 30 29 28 29 29 29 30 31 31 31 32 33 33 34 34 35 35 35 34 34 34 34 34 34 34 35 35 36 36 37 38 39 40 40 40 40 40 41 42
25 26 27 28 29 29 28 27 27 29 29 29 30 30 31 32 32 32 33 33 34 34 34 34 34 34 34 34 34 35 35 35 35 35 36 36 37 37 38 38 38 39 39 40
24 25 26 27 28 29 27 27 27 29 29 28 29 29 29 30 31 31 32 32 33 33 33 34 34 34 34 34 34 34 34 35 35 35 35 35 35 36 36 37 37 37 38 38
23 24 26 26 28 28 27 26 27 28 28 27 28 28 28 29 29 30 30 31 32 32 33 34 34 34 34 34 34 34 34 34 34 34 34 34 34 34 34 35 35 35 36 37
23 24 24 26 28 26 26 26 26 27 27 27 27 27 28 28 28 29 30 30 31 32 32 33 33 34 33 33 33 33 33 33 33 33 33 33 33 34 34 34 34 35 35 35
23 24 24 25 25 25 25 25 25 26 27 27 27 27 28 28 28 28 29 30 30 31 31 32 31 31 32 32 33 32 32 32 33 33 33 33 33 33 33 33 33 33 33 33
23 23 24 24 23 24 24 24 23 24 25 26 27 27 28 28 28 28 29 29 29 29 30 30 30 30 30 31 32 32 32 32 32 32 32 32 32 32 32 32 31 32 32 32
23 24 24 24 24 24 24 24 24 24 26 26 27 28 28 28 28 28 28 28 28 29 29 29 29 29 30 30 31 31 31 31 31 31 30 31 31 31 31 31 31 31 31 31
24 25 25 24 24 24 24 24 25 25 26 27 27 27 27 28 28 28 28 28 28 28 28 28 28 28 29 29 29 29 30 30 30 30 30 29 29 29 29 29 30 30 30 30
Wind_Direction
251 250 251 251 251 250 249 249 251 251 250 251 252 251 251 251 251 252 253 253 254 255 256 257 257 257 257 256 256 256 256 257 257 257 258 260 261 262 264 263 264 264 265 267
253 252 252 253 252 251 250 251 252 251 251 253 253 253 253 253 253 253 254 254 255 256 257 257 257 258 258 258 258 257 257 257 258 257 259 261 261 261 262 263 264 264 264 266
255 254 252 253 252 252 252 253 253 254 253 253 254 254 254 254 255 255 256 257 257 258 258 258 258 258 259 259 259 259 258 257 257 257 258 259 261 261 262 263 264 265 264 265
254 253 252 252 253 253 253 253 254 255 255 255 255 256 254 255 256 257 258 259 260 260 260 259 259 259 259 259 259 258 258 258 257 258 259 259 260 262 263 264 265 266 264 265
254 253 252 252 253 253 253 253 254 255 257 257 257 258 256 257 258 260 260 262 262 262 262 261 260 259 259 258 258 258 258 258 258 258 259 260 260 262 263 264 264 265 264 264
254 252 252 252 253 252 252 252 253 255 257 257 257 260 260 260 261 263 263 264 265 265 264 262 260 259 259 258 259 258 258 259 258 258 259 259 261 262 263 263 264 264 265 265
255 253 252 252 252 251 250 250 253 255 256 258 260 261 263 264 264 265 266 266 266 266 264 262 260 259 259 259 259 259 259 259 259 259 259 260 262 262 262 263 263 264 265 265
256 255 252 251 252 254 252 250 252 255 258 260 260 262 264 266 266 267 268 267 266 264 263 262 261 260 260 260 260 260 260 259 260 260 259 260 261 262 263 263 264 264 265 266
257 256 253 252 253 254 253 251 253 256 259 262 262 264 266 268 267 267 267 268 267 265 263 262 262 262 261 260 259 259 259 259 260 261 260 261 262 263 263 264 265 265 265 265
256 255 253 253 253 253 254 254 254 255 259 262 265 266 268 268 269 267 267 267 267 266 265 264 262 262 261 259 259 259 260 260 260 261 262 261 261 262 263 264 265 266 268 267
256 256 254 254 254 254 255 254 255 256 258 262 266 268 269 269 269 268 268 268 267 267 266 265 264 263 262 261 260 260 260 260 261 261 263 262 262 262 263 264 265 267 268 267
256 257 256 255 256 255 254 255 256 257 258 259 264 268 269 269 269 269 269 268 268 267 266 266 265 264 263 262 262 262 262 262 263 263 264 264 264 264 264 265 266 267 268 267
255 256 258 256 256 257 257 256 258 260 260 259 261 266 268 268 268 268 268 268 267 267 267 267 266 264 263 262 262 262 263 265 265 265 265 266 267 267 267 267 268 268 269 269
254 256 258 259 260 260 258 258 260 260 261 262 263 265 266 267 267 267 268 268 268 268 267 267 266 265 264 263 264 264 265 266 267 267 267 268 268 269 270 269 269 269 270 270
254 256 258 259 260 260 260 259 259 260 263 264 265 265 266 266 266 267 268 269 269 269 268 267 266 265 265 265 265 266 266 267 268 269 268 269 270 271 272 270 270 270 270 270
254 257 259 260 260 261 261 261 262 263 264 265 266 266 266 267 267 268 269 269 269 269 268 268 268 266 265 265 266 267 267 268 268 269 270 271 271 272 273 273 272 271 271 270
256 258 260 261 261 262 263 264 265 266 268 268 268 267 266 267 268 269 269 269 270 270 269 268 269 269 268 267 267 267 268 269 270 271 272 273 273 273 274 275 275 273 272 272
258 260 262 263 263 264 268 267 267 268 268 269 269 268 267 267 267 269 270 271 270 269 269 269 269 269 269 268 268 268 269 270 271 272 273 273 273 273 274 275 276 275 274 273
259 261 263 265 267 268 269 271 272 270 269 269 269 268 267 267 267 269 270 271 271 269 269 269 269 270 270 270 269 269 270 271 272 273 273 273 274 275 276 276 276 277 276 275
260 262 264 266 269 271 272 273 273 272 271 271 271 270 269 269 269 270 270 271 271 271 270 269 270 270 270 270 270 270 271 272 273 273 273 273 274 275 276 277 278 278 278 277
263 265 266 268 270 273 274 275 275 273 274 272 272 272 272 272 271 271 273 272 272 272 271 270 270 271 271 271 270 271 272 272 272 273 273 274 275 276 277 278 278 279 279 279
266 269 270 271 272 274 277 277 275 274 273 273 273 273 273 273 274 274 275 274 273 272 272 271 271 271 270 271 271 272 272 272 272 272 274 275 276 276 276 278 279 280 281 281
268 272 274 275 277 277 277 276 275 274 273 273 274 275 275 275 275 276 276 275 276 275 273 272 272 270 270 270 271 272 272 272 272 273 273 274 275 276 277 278 279 280 281 283
269 271 274 275 276 277 277 276 276 275 274 275 276 277 276 275 276 275 275 276 276 275 274 273 273 271 270 270 271 271 271 272 273 273 274 274 276 277 278 279 279 281 283 284
270 272 275 276 276 275 275 276 276 275 276 277 277 278 277 276 277 277 277 277 276 275 274 274 274 273 273 272 271 271 271 272 272 272 273 275 277 278 278 279 280 282 284 286
270 272 275 276 276 275 275 276 276 277 278 278 277 277 278 278 278 278 277 277 277 276 274 274 274 274 273 272 272 272 273 273 273 273 274 275 277 278 279 280 281 283 284 285
Height
5684 5686 5688 5691 5693 5695 5696 5698 5699 5702 5704 5706 5708 5711 5714 5716 5718 5721 5723 5725 5728 5730 5732 5734 5736 5737 5739 5741 5743 5745 5747 5749 5750 5752 5753 5754 5755 5756 5757 5758 5759 5759 5760 5761
5677 5680 5682 5683 5684 5686 5688 5690 5692 5694 5696 5697 5700 5703 5705 5707 5710 5712 5714 5716 5719 5721 5723 5725 5726 5728 5730 5732 5734 5735 5737 5738 5739 5741 5742 5743 5744 5746 5747 5748 5748 5749 5750 5751
5670 5673 5674 5675 5677 5679 5681 5683 5685 5686 5688 5689 5691 5694 5697 5699 5701 5703 5705 5707 5709 5711 5713 5715 5716 5718 5720 5721 5723 5724 5726 5727 5729 5730 5731 5732 5734 5735 5736 5737 5738 5738 5739 5740
5662 5664 5666 5667 5669 5671 5673 5675 5677 5678 5679 5681 5684 5685 5690 5692 5693 5695 5697 5699 5700 5701 5703 5705 5706 5708 5710 5711 5712 5714 5715 5716 5718 5719 5720 5722 5723 5725 5726 5726 5727 5727 5728 5728
5654 5656 5658 5660 5662 5663 5665 5667 5669 5670 5671 5673 5675 5676 5682 5683 5685 5687 5688 5690 5691 5692 5693 5695 5696 5698 5699 5700 5702 5703 5704 5706 5707 5708 5710 5711 5712 5713 5714 5715 5716 5716 5716 5717
5647 5648 5649 5652 5654 5655 5657 5659 5661 5661 5662 5665 5668 5669 5672 5674 5677 5678 5680 5681 5681 5682 5684 5685 5686 5687 5689 5690 5691 5693 5694 5695 5696 5698 5699 5700 5701 5702 5702 5703 5704 5705 5705 5706
5639 5641 5642 5644 5646 5647 5649 5652 5653 5653 5654 5657 5661 5660 5664 5666 5667 5669 5671 5672 5672 5673 5674 5675 5676 5677 5679 5680 5681 5682 5683 5685 5686 5687 5688 5689 5689 5690 5691 5692 5692 5693 5694 5695
5631 5633 5635 5636 5638 5640 5641 5644 5646 5646 5647 5650 5651 5652 5656 5657 5658 5660 5661 5662 5663 5664 5664 5665 5667 5668 5669 5670 5671 5672 5673 5674 5675 5676 5677 5677 5678 5679 5679 5680 5680 5681 5682 5682
5624 5625 5627 5629 5631 5633 5634 5635 5638 5639 5640 5641 5643 5645 5647 5648 5650 5651 5652 5653 5653 5655 5655 5656 5657 5658 5658 5659 5660 5661 5662 5663 5664 5665 5665 5666 5667 5667 5668 5668 5669 5669 5669 5670
5617 5618 5620 5622 5623 5625 5627 5629 5630 5631 5632 5633 5635 5637 5639 5641 5642 5642 5643 5643 5644 5645 5646 5647 5647 5648 5648 5649 5650 5651 5652 5653 5653 5654 5654 5655 5655 5656 5656 5656 5657 5657 5657 5658
5610 5612 5613 5615 5616 5618 5620 5622 5622 5623 5625 5626 5627 5631 5630 5632 5632 5633 5634 5634 5635 5636 5636 5637 5637 5638 5638 5639 5640 5640 5641 5642 5643 5643 5643 5644 5644 5644 5645 5645 5646 5646 5646 5645
5603 5605 5606 5608 5610 5611 5612 5614 5615 5617 5618 5618 5619 5624 5622 5623 5623 5624 5624 5625 5625 5626 5627 5627 5628 5628 5628 5629 5630 5630 5631 5631 5632 5632 5632 5633 5633 5633 5634 5634 5634 5634 5634 5634
5597 5598 5599 5601 5604 5604 5605 5606 5607 5608 5609 5610 5611 5616 5614 5614 5615 5615 5615 5615 5616 5616 5617 5618 5618 5618 5619 5619 5620 5620 5621 5621 5621 5621 5621 5622 5622 5622 5623 5623 5622 5622 5622 5622
5589 5591 5593 5595 5595 5596 5598 5600 5600 5600 5601 5602 5604 5606 5606 5606 5606 5606 5606 5607 5607 5608 5608 5608 5608 5609 5609 5610 5610 5611 5611 5611 5611 5611 5611 5611 5611 5611 5611 5611 5611 5610 5610 5610
5582 5584 5585 5587 5588 5589 5591 5592 5592 5592 5593 5594 5596 5597 5598 5597 5597 5597 5597 5598 5598 5599 5599 5599 5599 5599 5600 5600 5600 5600 5600 5600 5600 5600 5600 5600 5600 5600 5599 5599 5599 5598 5598 5598
5575 5577 5578 5580 5580 5581 5582 5584 5584 5585 5585 5586 5587 5589 5590 5588 5588 5588 5589 5589 5589 5590 5590 5590 5590 5590 5590 5590 5590 5590 5590 5590 5589 5589 5589 5589 5589 5588 5587 5587 5586 5586 5586 5585
5569 5570 5571 5573 5573 5573 5575 5577 5577 5577 5578 5578 5578 5581 5580 5580 5580 5580 5580 5580 5580 5580 5580 5580 5581 5581 5581 5580 5580 5580 5580 5579 5579 5579 5578 5578 5577 5577 5576 5575 5574 5573 5573 5573
5563 5563 5564 5564 5566 5566 5571 5569 5569 5569 5570 5570 5570 5571 5571 5571 5571 5571 5571 5571 5571 5571 5571 5571 5571 5571 5571 5571 5570 5570 5570 5569 5569 5568 5568 5567 5566 5566 5565 5564 5563 5562 5562 5561
5556 5557 5557 5557 5557 5558 5561 5562 5561 5561 5562 5562 5562 5562 5562 5562 5562 5563 5562 5562 5561 5561 5562 5561 5561 5561 5561 5561 5560 5560 5560 5559 5559 5558 5557 5557 5556 5555 5554 5553 5552 5551 5550 5550
5550 5550 5551 5550 5550 5551 5555 5554 5553 5554 5554 5555 5554 5553 5553 5553 5554 5555 5553 5553 5552 5552 5552 5552 5551 5551 5551 5551 5550 5550 5550 5549 5549 5548 5547 5546 5545 5545 5544 5543 5541 5540 5540 5539
5544 5544 5544 5544 5543 5544 5546 5546 5546 5547 5548 5546 5545 5545 5545 5545 5545 5545 5544 5543 5543 5542 5542 5542 5542 5541 5541 5541 5541 5540 5540 5539 5538 5538 5537 5536 5535 5534 5533 5532 5531 5530 5529 5528
5538 5538 5538 5537 5537 5540 5539 5538 5538 5538 5538 5538 5537 5537 5537 5537 5536 5536 5535 5534 5534 5533 5533 5532 5532 5531 5531 5531 5530 5530 5530 5529 5528 5528 5527 5526 5525 5524 5523 5522 5521 5520 5519 5518
5531 5532 5532 5532 5533 5532 5530 5530 5530 5530 5530 5530 5530 5529 5529 5528 5528 5527 5526 5526 5525 5524 5523 5523 5522 5522 5521 5521 5520 5520 5520 5519 5518 5518 5517 5516 5515 5515 5514 5513 5512 5510 5509 5508
5525 5525 5525 5525 5525 5524 5523 5523 5523 5522 5522 5522 5522 5521 5521 5520 5519 5519 5518 5517 5516 5515 5514 5513 5513 5512 5512 5511 5511 5510 5509 5509 5508 5508 5507 5507 5506 5505 5504 5503 5502 5501 5500 5498
5518 5518 5518 5518 5518 5517 5517 5516 5516 5516 5515 5515 5514 5513 5513 5512 5511 5510 5509 5508 5507 5506 5505 5505 5504 5503 5503 5502 5501 5500 5500 5499 5499 5498 5498 5497 5496 5496 5495 5494 5493 5492 5490 5489
5511 5511 5512 5512 5511 5511 5510 5510 5509 5508 5508 5507 5506 5505 5504 5503 5502 5501 5500 5499 5498 5498 5497 5496 5495 5494 5493 5493 5492 5491 5490 5490 5490 5489 5489 5488 5487 5486 5485 5485 5484 5482 5481 5480